Location: *
(51.1248°S, 108.4023°W)
Time: 04:44:41
(UTC+00:00)

SMAP - Pass Details

Date: 15 June 2021
Orbit: 681 x 683 km, 98.1° (Epoch: 31 July)

Event Time Altitude Azimuth Distance (km) Brightness Sun altitude
Rises 13:43:46 0° 335° (NNW) 3,047 6.4 -13.5°
Reaches altitude 10° 13:46:33 10° 317° (NW) 2,141 5.4 -13.1°
Maximum altitude 13:49:59 20° 270° (W) 1,590 4.4 -12.6°
Enters shadow 13:51:16 18° 248° (WSW) 1,685 4.4 -12.4°
